Tracking 23728 objects as of 23-Sep-2021
HD Live streaming from Space Station
objects crossing your sky now

STARLINK-1818

Track STARLINK-1818 now!
10-day predictions
STARLINK-1818 is classified as:


NORAD ID: 46716
Int'l Code: 2020-073AY
Perigee: 553.5 km
Apogee: 555.2 km
Inclination: 53.1 °
Period: 95.6 minutes
Semi major axis: 6925 km
RCS: Unknown
Launch date: October 18, 2020
Source: United States (US)
Launch site: AIR FORCE EASTERN TEST RANGE (AFETR)
aabbcc
Your satellite tracking list
Your tracking list is empty




NASA's NSSDC Master Catalog

Two Line Element Set (TLE):
1 46716U 20073AY  21265.99250344  .00000269  00000-0  36931-4 0  9991
2 46716  53.0565   8.1347 0001231 111.7921 248.3199 15.06392726 51915
Source of the keplerian elements: AFSPC